User: anonymous   Login
Location: Podia
(1.5569°N, 32.3469°E)
Time: 11:03:17
(UTC+00:00)
Language:

Altair - Orbit

View from above orbital plane
View from above orbital plane
View from above satellite
View from above satellite

Ground track
Ground track

The orbit data is extracted from the following two-line orbital elements,

1    50U 60009B   20269.39339655 -.00000104 +00000-0 -18290-3 0  9992
2    50 047.2308 171.0907 0113688 263.7852 094.9976 12.20112317682422
Epoch (UTC): 25 September 2020 09:26:29
Eccentricity: 0.0113688
inclination: 47.2308°
perigee height: 1501 km
apogee height: 1682 km
right ascension of ascending node: 171.0907°
argument of perigee: 263.7852°
revolutions per day: 12.20112317
mean anomaly at epoch: 94.9976°
orbit number at epoch: 68242

The dashed part of the orbit path shows where the satellite is in the earth's shadow,  

DLR